ALK101 VCBI-VRMM

Flight info

Callsign ALK101
Flight time 1h 6m
Altitude 40000
Route LALUM DCT HOKEY HOKEY1B
Aircraft A333/H-SDE2E3FGHIRWXY/L

Departure

Time 2026-04-29 14:24
Airport Bandaranaike International Colombo Airport (VCBI)

Arrival

Time 2026-04-29 15:30
Airport Velana International Airport (VRMM)
Time Latitude Longitude Altitude Speed Heading
2026-04-29 14:03 7.17611 79.88413 31 ft 0 kts 37°
2026-04-29 14:15 7.17596 79.88402 30 ft 4 kts 33°
2026-04-29 14:15 7.17573 79.88389 29 ft 4 kts 22°
2026-04-29 14:15 7.17547 79.88382 30 ft 4 kts 359°
2026-04-29 14:15 7.17525 79.88388 29 ft 2 kts 308°
2026-04-29 14:16 7.17524 79.88389 28 ft 5 kts 307°
2026-04-29 14:18 7.17529 79.88382 29 ft 7 kts 305°
2026-04-29 14:18 7.17594 79.88301 31 ft 18 kts 310°
2026-04-29 14:18 7.17692 79.88284 31 ft 15 kts 29°
2026-04-29 14:18 7.17783 79.88349 31 ft 19 kts 38°
2026-04-29 14:19 7.17894 79.88437 31 ft 21 kts 38°
2026-04-29 14:19 7.18019 79.88531 31 ft 23 kts 37°
2026-04-29 14:19 7.18157 79.88631 31 ft 25 kts 34°
2026-04-29 14:19 7.18293 79.88739 31 ft 26 kts 39°
2026-04-29 14:20 7.18442 79.88852 31 ft 28 kts 36°
2026-04-29 14:20 7.18598 79.88970 32 ft 29 kts 37°
2026-04-29 14:20 7.18761 79.89097 32 ft 30 kts 38°
2026-04-29 14:20 7.18910 79.89211 31 ft 26 kts 37°
2026-04-29 14:21 7.19058 79.89324 31 ft 24 kts 37°
2026-04-29 14:21 7.19180 79.89401 31 ft 17 kts
2026-04-29 14:21 7.19220 79.89388 31 ft 2 kts 310°
2026-04-29 14:21 7.19234 79.89370 30 ft 5 kts 310°
2026-04-29 14:22 7.19263 79.89337 30 ft 8 kts 310°
2026-04-29 14:22 7.19290 79.89294 30 ft 5 kts 281°
2026-04-29 14:22 7.19276 79.89263 31 ft 5 kts 227°
2026-04-29 14:22 7.19248 79.89240 31 ft 0 kts 219°
2026-04-29 14:23 7.19243 79.89236 31 ft 6 kts 219°
2026-04-29 14:23 7.19065 79.89099 32 ft 67 kts 217°
2026-04-29 14:23 7.18499 79.88668 32 ft 134 kts 217°
2026-04-29 14:23 7.17611 79.87987 254 ft 177 kts 217°
2026-04-29 14:24 7.16605 79.87215 1005 ft 182 kts 217°
2026-04-29 14:24 7.15604 79.86453 2119 ft 177 kts 216°
2026-04-29 14:24 7.14575 79.85685 2853 ft 192 kts 216°
2026-04-29 14:24 7.13469 79.84876 3535 ft 205 kts 214°
2026-04-29 14:25 7.12262 79.84006 4097 ft 225 kts 215°
2026-04-29 14:25 7.10965 79.82977 4556 ft 246 kts 218°
2026-04-29 14:25 7.09592 79.81861 5054 ft 261 kts 217°
2026-04-29 14:25 7.08105 79.80703 5623 ft 276 kts 216°
2026-04-29 14:26 7.06564 79.79525 6499 ft 278 kts 216°
2026-04-29 14:26 7.05040 79.78349 7422 ft 279 kts 215°
2026-04-29 14:26 7.03486 79.77149 8368 ft 283 kts 215°
2026-04-29 14:26 7.01900 79.75929 9222 ft 289 kts 215°
2026-04-29 14:27 7.00281 79.74685 10078 ft 295 kts 215°
2026-04-29 14:27 6.98621 79.73411 10587 ft 314 kts 215°
2026-04-29 14:27 6.96820 79.72030 10987 ft 334 kts 215°
2026-04-29 14:28 6.93025 79.69115 12380 ft 349 kts 215°
2026-04-29 14:28 6.91076 79.67619 13165 ft 354 kts 216°
2026-04-29 14:28 6.89104 79.66096 13898 ft 359 kts 217°
2026-04-29 14:28 6.87280 79.64396 14580 ft 366 kts 226°
2026-04-29 14:29 6.85752 79.62318 15286 ft 371 kts 234°
2026-04-29 14:29 6.84243 79.60187 15996 ft 375 kts 232°
2026-04-29 14:29 6.82648 79.58089 16698 ft 379 kts 231°
2026-04-29 14:29 6.81017 79.55988 17383 ft 384 kts 230°
2026-04-29 14:30 6.79354 79.53863 18079 ft 388 kts 230°
2026-04-29 14:30 6.77693 79.51747 18682 ft 391 kts 230°
2026-04-29 14:30 6.75994 79.49584 19259 ft 395 kts 230°
2026-04-29 14:30 6.74279 79.47403 19826 ft 399 kts 230°
2026-04-29 14:31 6.72544 79.45198 20420 ft 402 kts 230°
2026-04-29 14:31 6.70820 79.43007 20998 ft 405 kts 230°
2026-04-29 14:31 6.69058 79.40768 21576 ft 409 kts 230°
2026-04-29 14:31 6.67283 79.38513 22148 ft 412 kts 230°
2026-04-29 14:32 6.65491 79.36237 22703 ft 416 kts 230°
2026-04-29 14:32 6.63688 79.33947 23244 ft 420 kts 230°
2026-04-29 14:32 6.61864 79.31631 23732 ft 423 kts 230°
2026-04-29 14:32 6.60048 79.29326 24182 ft 426 kts 230°
2026-04-29 14:33 6.58199 79.26978 24657 ft 428 kts 230°
2026-04-29 14:33 6.56341 79.24620 25122 ft 431 kts 230°
2026-04-29 14:33 6.54471 79.22246 25595 ft 433 kts 230°
2026-04-29 14:33 6.52593 79.19864 26026 ft 435 kts 230°
2026-04-29 14:34 6.51341 79.18275 26330 ft 437 kts 230°
2026-04-29 14:34 6.49150 79.15496 26830 ft 440 kts 230°
2026-04-29 14:34 6.47886 79.13893 27112 ft 442 kts 230°
2026-04-29 14:34 6.45322 79.10640 27695 ft 445 kts 230°
2026-04-29 14:35 6.44043 79.09019 27979 ft 447 kts 230°
2026-04-29 14:35 6.41469 79.05755 28540 ft 450 kts 230°
2026-04-29 14:35 6.40149 79.04082 28819 ft 452 kts 230°
2026-04-29 14:35 6.38214 79.01629 29204 ft 455 kts 230°
2026-04-29 14:36 6.36236 78.99123 29610 ft 457 kts 230°
2026-04-29 14:36 6.34247 78.96601 30005 ft 460 kts 230°
2026-04-29 14:36 6.32250 78.94072 30302 ft 463 kts 230°
2026-04-29 14:36 6.30240 78.91521 30627 ft 466 kts 231°
2026-04-29 14:37 6.28412 78.88853 30958 ft 469 kts 239°
2026-04-29 14:37 6.26909 78.85921 31297 ft 472 kts 243°
2026-04-29 14:37 6.25516 78.82923 31633 ft 474 kts 244°
2026-04-29 14:37 6.24139 78.79901 31978 ft 475 kts 245°
2026-04-29 14:38 6.22848 78.76876 32452 ft 474 kts 246°
2026-04-29 14:38 6.21575 78.73817 32952 ft 472 kts 246°
2026-04-29 14:38 6.20312 78.70784 33445 ft 470 kts 246°
2026-04-29 14:38 6.19043 78.67748 33926 ft 468 kts 246°
2026-04-29 14:39 6.17780 78.64736 34294 ft 468 kts 246°
2026-04-29 14:39 6.16530 78.61759 34689 ft 467 kts 246°
2026-04-29 14:39 6.15265 78.58751 35085 ft 465 kts 246°
2026-04-29 14:39 6.14004 78.55756 35484 ft 464 kts 246°
2026-04-29 14:40 6.12744 78.52763 35874 ft 463 kts 246°
2026-04-29 14:40 6.11503 78.49815 36226 ft 462 kts 246°
2026-04-29 14:40 6.10246 78.46832 36605 ft 461 kts 246°
2026-04-29 14:40 6.08996 78.43866 36992 ft 460 kts 246°
2026-04-29 14:41 6.07750 78.40910 37356 ft 459 kts 247°
2026-04-29 14:41 6.06521 78.37994 37728 ft 457 kts 247°
2026-04-29 14:41 6.05280 78.35052 38112 ft 456 kts 247°
2026-04-29 14:41 6.04044 78.32120 38474 ft 454 kts 247°
2026-04-29 14:42 6.02808 78.29190 38790 ft 453 kts 247°
2026-04-29 14:42 6.01595 78.26314 39081 ft 452 kts 247°
2026-04-29 14:42 6.00368 78.23405 39368 ft 450 kts 248°
2026-04-29 14:42 5.99144 78.20506 39669 ft 449 kts 247°
2026-04-29 14:43 5.97923 78.17613 39867 ft 450 kts 248°
2026-04-29 14:43 5.95465 78.11789 39909 ft 459 kts 247°
2026-04-29 14:44 5.92969 78.05879 39907 ft 457 kts 247°
2026-04-29 14:44 5.90486 78.00002 39908 ft 456 kts 247°
2026-04-29 14:45 5.88021 77.94169 39907 ft 456 kts 248°
2026-04-29 14:45 5.85535 77.88289 39909 ft 457 kts 248°
2026-04-29 14:46 5.83047 77.82404 39911 ft 457 kts 248°
2026-04-29 14:46 5.80573 77.76557 39906 ft 457 kts 248°
2026-04-29 14:47 5.78084 77.70674 39909 ft 457 kts 248°
2026-04-29 14:47 5.75596 77.64798 39904 ft 457 kts 248°
2026-04-29 14:48 5.73121 77.58951 39904 ft 457 kts 248°
2026-04-29 14:48 5.70626 77.53061 39906 ft 458 kts 248°
2026-04-29 14:49 5.68127 77.47165 39908 ft 458 kts 248°
2026-04-29 14:49 5.65646 77.41311 39909 ft 458 kts 248°
2026-04-29 14:50 5.63146 77.35415 39907 ft 458 kts 248°
2026-04-29 14:50 5.60643 77.29514 39909 ft 458 kts 248°
2026-04-29 14:51 5.58162 77.23665 39908 ft 458 kts 248°
2026-04-29 14:51 5.55652 77.17751 39909 ft 459 kts 248°
2026-04-29 14:52 5.53166 77.11896 39906 ft 458 kts 248°
2026-04-29 14:52 5.50662 77.05999 39910 ft 457 kts 248°
2026-04-29 14:53 5.48174 77.00141 39909 ft 457 kts 248°
2026-04-29 14:53 5.45675 76.94260 39906 ft 458 kts 248°
2026-04-29 14:54 5.43175 76.88381 39910 ft 458 kts 248°
2026-04-29 14:54 5.40673 76.82495 39911 ft 460 kts 248°
2026-04-29 14:55 5.38162 76.76591 39904 ft 462 kts 247°
2026-04-29 14:55 5.35634 76.70648 39906 ft 463 kts 247°
2026-04-29 14:56 5.33119 76.64741 39903 ft 463 kts 247°
2026-04-29 14:56 5.30590 76.58799 39906 ft 462 kts 248°
2026-04-29 14:57 5.28061 76.52861 39911 ft 463 kts 247°
2026-04-29 14:57 5.25529 76.46917 39910 ft 463 kts 247°
2026-04-29 14:58 5.23003 76.40989 39908 ft 465 kts 248°
2026-04-29 14:58 5.20456 76.35014 39908 ft 465 kts 247°
2026-04-29 14:59 5.17902 76.29023 39911 ft 466 kts 248°
2026-04-29 14:59 5.15374 76.23098 39907 ft 462 kts 248°
2026-04-29 15:00 5.12845 76.17170 39909 ft 460 kts 248°
2026-04-29 15:00 5.10481 76.11248 39912 ft 458 kts 252°
2026-04-29 15:01 5.08581 76.05164 39913 ft 455 kts 253°
2026-04-29 15:01 5.06730 75.99112 39906 ft 454 kts 253°
2026-04-29 15:02 5.04883 75.93092 39904 ft 454 kts 253°
2026-04-29 15:02 5.03020 75.87029 39910 ft 454 kts 253°
2026-04-29 15:03 5.01155 75.80964 39912 ft 454 kts 253°
2026-04-29 15:03 4.99302 75.74941 39908 ft 454 kts 253°
2026-04-29 15:04 4.97432 75.68864 39907 ft 455 kts 253°
2026-04-29 15:04 4.95573 75.62827 39909 ft 455 kts 253°
2026-04-29 15:05 4.93714 75.56792 39669 ft 445 kts 252°
2026-04-29 15:05 4.92814 75.53868 39633 ft 433 kts 252°
2026-04-29 15:05 4.91944 75.51045 39585 ft 423 kts 252°
2026-04-29 15:05 4.91079 75.48237 39236 ft 422 kts 252°
2026-04-29 15:06 4.90208 75.45413 38803 ft 422 kts 252°
2026-04-29 15:06 4.89338 75.42590 38334 ft 423 kts 252°
2026-04-29 15:06 4.88466 75.39763 37875 ft 423 kts 252°
2026-04-29 15:06 4.87605 75.36975 37449 ft 422 kts 252°
2026-04-29 15:07 4.86735 75.34157 37004 ft 422 kts 252°
2026-04-29 15:07 4.85862 75.31334 36557 ft 424 kts 252°
2026-04-29 15:07 4.84986 75.28499 36107 ft 427 kts 251°
2026-04-29 15:07 4.84102 75.25639 35643 ft 430 kts 251°
2026-04-29 15:08 4.83214 75.22766 35129 ft 433 kts 251°
2026-04-29 15:08 4.82329 75.19904 34594 ft 436 kts 252°
2026-04-29 15:08 4.81425 75.16983 33945 ft 440 kts 251°
2026-04-29 15:08 4.80510 75.14022 33219 ft 445 kts 252°
2026-04-29 15:09 4.79587 75.11038 32537 ft 448 kts 252°
2026-04-29 15:09 4.78674 75.08089 31857 ft 451 kts 251°
2026-04-29 15:09 4.77742 75.05075 31133 ft 454 kts 251°
2026-04-29 15:09 4.76801 75.02036 30484 ft 456 kts 252°
2026-04-29 15:10 4.75861 74.98998 29985 ft 454 kts 251°
2026-04-29 15:10 4.74929 74.95985 29397 ft 451 kts 251°
2026-04-29 15:10 4.74002 74.92991 28846 ft 448 kts 251°
2026-04-29 15:10 4.73079 74.90007 28314 ft 445 kts 251°
2026-04-29 15:11 4.72174 74.87086 27775 ft 443 kts 251°
2026-04-29 15:11 4.71264 74.84148 27263 ft 440 kts 251°
2026-04-29 15:11 4.70359 74.81228 26735 ft 437 kts 251°
2026-04-29 15:11 4.69457 74.78318 26188 ft 436 kts 251°
2026-04-29 15:12 4.68558 74.75416 25637 ft 435 kts 251°
2026-04-29 15:12 4.67962 74.73495 25292 ft 434 kts 251°
2026-04-29 15:12 4.66766 74.69635 24577 ft 432 kts 251°
2026-04-29 15:12 4.65875 74.66763 24043 ft 431 kts 251°
2026-04-29 15:13 4.64985 74.63894 23503 ft 430 kts 251°
2026-04-29 15:13 4.64110 74.61070 22898 ft 428 kts 251°
2026-04-29 15:13 4.63231 74.58238 22364 ft 424 kts 251°
2026-04-29 15:13 4.62357 74.55420 21825 ft 420 kts 251°
2026-04-29 15:14 4.61492 74.52631 21305 ft 416 kts 251°
2026-04-29 15:14 4.60635 74.49869 20782 ft 413 kts 251°
2026-04-29 15:14 4.59784 74.47127 20265 ft 409 kts 251°
2026-04-29 15:14 4.58952 74.44448 19761 ft 406 kts 251°
2026-04-29 15:15 4.58113 74.41745 19226 ft 403 kts 251°
2026-04-29 15:15 4.57281 74.39065 18733 ft 400 kts 251°
2026-04-29 15:15 4.56456 74.36409 18211 ft 397 kts 251°
2026-04-29 15:15 4.55637 74.33774 17646 ft 394 kts 251°
2026-04-29 15:16 4.54826 74.31164 17126 ft 389 kts 251°
2026-04-29 15:16 4.54071 74.28611 16630 ft 385 kts 254°
2026-04-29 15:16 4.53429 74.26016 16128 ft 380 kts 255°
2026-04-29 15:16 4.52825 74.23443 15652 ft 376 kts 255°
2026-04-29 15:17 4.52230 74.20892 15131 ft 373 kts 255°
2026-04-29 15:17 4.51646 74.18400 14637 ft 369 kts 255°
2026-04-29 15:17 4.51059 74.15901 14151 ft 366 kts 255°
2026-04-29 15:17 4.50673 74.14263 13834 ft 363 kts 255°
2026-04-29 15:18 4.49899 74.10978 13131 ft 358 kts 255°
2026-04-29 15:18 4.49328 74.08557 12646 ft 354 kts 255°
2026-04-29 15:18 4.48766 74.06175 12249 ft 348 kts 255°
2026-04-29 15:18 4.48219 74.03856 11842 ft 344 kts 255°
2026-04-29 15:19 4.47668 74.01523 11369 ft 343 kts 255°
2026-04-29 15:19 4.47117 73.99192 10900 ft 341 kts 255°
2026-04-29 15:19 4.46580 73.96918 10738 ft 328 kts 255°
2026-04-29 15:19 4.46068 73.94748 10644 ft 313 kts 255°
2026-04-29 15:20 4.45582 73.92687 10506 ft 302 kts 255°
2026-04-29 15:20 4.45098 73.90642 10150 ft 302 kts 255°
2026-04-29 15:20 4.44640 73.88572 9749 ft 304 kts 260°
2026-04-29 15:20 4.44487 73.86460 9368 ft 303 kts 268°
2026-04-29 15:21 4.44473 73.84384 9016 ft 300 kts 269°
2026-04-29 15:21 4.44481 73.82297 8650 ft 296 kts 269°
2026-04-29 15:21 4.44489 73.80232 8291 ft 295 kts 269°
2026-04-29 15:21 4.44494 73.78201 7927 ft 292 kts 269°
2026-04-29 15:22 4.44496 73.76172 7573 ft 290 kts 269°
2026-04-29 15:22 4.44494 73.74155 7208 ft 287 kts 269°
2026-04-29 15:22 4.44490 73.72162 6854 ft 285 kts 269°
2026-04-29 15:22 4.44486 73.70183 6498 ft 282 kts 269°
2026-04-29 15:23 4.44481 73.68248 6139 ft 280 kts 269°
2026-04-29 15:23 4.44477 73.66302 5769 ft 277 kts 269°
2026-04-29 15:23 4.44474 73.64382 5521 ft 274 kts 269°
2026-04-29 15:23 4.44474 73.62478 5141 ft 273 kts 269°
2026-04-29 15:24 4.44474 73.60585 4802 ft 269 kts 269°
2026-04-29 15:24 4.44475 73.58749 4545 ft 262 kts 269°
2026-04-29 15:24 4.44476 73.56968 4314 ft 247 kts 268°
2026-04-29 15:24 4.44456 73.55850 4132 ft 237 kts 264°
2026-04-29 15:25 4.44006 73.54322 3888 ft 226 kts 237°
2026-04-29 15:25 4.42856 73.53313 3714 ft 221 kts 205°
2026-04-29 15:25 4.41343 73.53008 3393 ft 225 kts 184°
2026-04-29 15:25 4.39778 73.52998 3121 ft 223 kts 181°
2026-04-29 15:26 4.38229 73.53050 2674 ft 222 kts 180°
2026-04-29 15:26 4.36682 73.53084 2321 ft 223 kts 182°
2026-04-29 15:26 4.35175 73.53082 2217 ft 213 kts 182°
2026-04-29 15:26 4.33733 73.53083 2147 ft 201 kts 183°
2026-04-29 15:27 4.32365 73.53086 2039 ft 192 kts 182°
2026-04-29 15:27 4.31062 73.53091 1909 ft 183 kts 182°
2026-04-29 15:27 4.29802 73.53093 1705 ft 178 kts 182°
2026-04-29 15:27 4.28610 73.53094 1452 ft 164 kts 184°
2026-04-29 15:28 4.27528 73.53096 1257 ft 147 kts 184°
2026-04-29 15:28 4.26553 73.53096 1071 ft 134 kts 184°
2026-04-29 15:28 4.25626 73.53096 902 ft 133 kts 184°
2026-04-29 15:28 4.24705 73.53097 773 ft 132 kts 182°
2026-04-29 15:29 4.23790 73.53102 609 ft 133 kts 183°
2026-04-29 15:29 4.21960 73.53101 211 ft 131 kts 185°
2026-04-29 15:30 4.20242 73.53102 16 ft 96 kts 180°
2026-04-29 15:30 4.19772 73.53102 15 ft 38 kts 183°
2026-04-29 15:30 4.19692 73.53018 16 ft 14 kts 263°
2026-04-29 15:30 4.19665 73.52935 17 ft 12 kts 223°
2026-04-29 15:31 4.19562 73.52906 17 ft 19 kts 186°
2026-04-29 15:31 4.19405 73.52907 18 ft 26 kts 178°
2026-04-29 15:31 4.19205 73.52911 18 ft 31 kts 179°
2026-04-29 15:31 4.18970 73.52919 18 ft 36 kts 179°
2026-04-29 15:32 4.18765 73.52923 18 ft 12 kts 181°
2026-04-29 15:32 4.18693 73.52900 19 ft 7 kts 243°
2026-04-29 15:32 4.18642 73.52860 18 ft 13 kts 192°
2026-04-29 15:32 4.18521 73.52859 17 ft 21 kts 179°
2026-04-29 15:33 4.18459 73.52844 18 ft 6 kts 237°
2026-04-29 15:33 4.18450 73.52806 17 ft 3 kts 263°
2026-04-29 15:33 4.18449 73.52795 17 ft 0 kts 265°
2026-04-29 15:33 4.18449 73.52794 17 ft 0 kts 266°